Location: Ebendorf
(52.1827°N, 11.5706°E)
Time: 10:00:37
(UTC+00:00)

Meteor 2-10 Rocket - Pass Details

Date: 15 May 2021
Orbit: 733 x 885 km, 81.2° (Epoch: 20 June)

Event Time Altitude Azimuth Distance (km) Brightness Sun altitude
Rises 02:19:28 0° 345° (NNW) 3,487 7.4 -7.9°
Reaches altitude 10° 02:21:57 10° 344° (NNW) 2,532 6.6 -7.6°
Maximum altitude 02:27:42 74° 261° (W) 891 3.7 -7.0°
Drops below altitude 10° 02:33:12 10° 177° (S) 2,428 5.7 -6.4°
Sets 02:35:33 0° 176° (S) 3,334 6.4 -6.1°
